OneWeb SL0603

operational
NORAD ID: 54667 Int'l Des: 2022-166 Owner: ONEWEBN Country: UK Constellation: oneweb
LEOCIRCULARPOLARONEWEB_TYPE

About OneWeb SL0603

Description loading...

Live Position

Loading 3D Globe...

Upcoming Passes

Altitude History

Altitude vs Time

uPlot chart will show altitude changes over time

Two-Line Element Set

1 54667U 22166AB 26047.11736147 .00000101 00000-0 21376-3 0 9998
2 54667 87.9187 268.0982 0001525 82.7367 277.3940 13.21826802155489
Epoch: Feb 16, 2026 • Age: 6 hours

Current Status

Altitude 1188.1 km
Velocity 7.27 km/s
Sub-Earth Point 66.06°N, 2.63°W
Launch Date Dec 8, 2022
Age 3.1 years
Type internet

Technical Details

Classification Payload
Mass 148.00 kg
Dry Mass 140.00 kg
Total Mass 148.00 kg
Length 1.30 m
Diameter 1.00 m
Span 5.00 m
Shape Trapezoid+2 pan
Manufacturer ONEWUS
Bus Type ARROW
Phase Status In Orbit
Owner/State ONEWEBN/UK

Large Constellations

Loading constellations...